Погода Боковская

Погода Боковская : погода сейчас, прогноз погоды и архив. Всё, что Вы хотите узнать о погоде Боковская!

Хотите узнать прогноз погоды Боковская? Тогда Вам сюда: Погода Боковская

Поиск расширенной информации на нашем сайте:

Другие новости

Новости СМИ2

Главная страница сайта

Новости сайта

03.07.2017

Напоминаем, что на нашем специализированном сайте Метеоцентр.Азия вы можете получить высокодетализированные автоматические прогнозы погоды по пунктам России, СНГ и мира в авиационном формате (включающие направление и скорость ветра, видимость, явления погоды, количество и форму облачности, нижнюю и верхнюю границу облачности).


Погода Боковская - сегодня

Время (UTC), дата Ветер
(°,м/с) 
Видим.   Явления Облачность Т
(°С)
Тd
(°С)
f(%) Тe
(°С)
Pmin
(гПа)
dP
(гПа)
Po
(мм)
O2
(г/м3)
Тmin Tmax R s Состояние
почвы
03 19.11.17 130 (ЮВ) 4000 м  дымка  10/10 600 м 
[Sc]
+3.3 +2.3 93 +2  1018.1  -1.1  755  300  +2.2         
06 19.11.17 130 (ЮВ) 4000 м  дымка  10/10 200 м 
[St]
+3.7 +2.8 94 +3  1017.1  -0.9  754  299           
09 19.11.17 140 (ЮВ) 4000 м  дымка  10/10 200 м 
[St]
+5.5 +4.4 93 +4  1015.3  -1.7  753  297           
12 19.11.17 140 (ЮВ) 4{10}  4000 м  слаб. морось  10/10 200 м 
[St]
+6.9 +5.5 91 +6  1013.7  -1.6  752  295           
15 19.11.17 130 (ЮВ) 4000 м  дымка{морось}  10/10 200 м 
[St]
+7.7 +6.6 93 +7  1013.2  -0.4  752  293    +7.7  0.0     
18 19.11.17 140 (ЮВ) 4000 м  дымка{морось}  10/0 средняя 
[As trans]
+8.6 +6.9 89 +8  1013.2  752  292           
21 19.11.17 140 (ЮВ) 20000 м    10/0 средняя 
[As trans]
+8.6 +6.8 88 +8  1012.9  -0.3  751  292           
00 20.11.17 130 (ЮВ) 20000 м    10/0 средняя 
[As trans]
+8.5 +6.8 89 +8  1012.2  -0.7  751  292           
03 20.11.17 140 (ЮВ) 20000 м    10/3 600 м средняя 
[Sc|As trans]
+8.5 +7.1 91 +8  1012.1  -0.1  751  292  +7.7        влажная 
06 20.11.17 130 (ЮВ) 4000 м  дымка  10/10 600 м 
[Sc]
+8.8 +7.3 90 +8  1011.8  -0.2  751  292           
09 20.11.17 120 (ЮВ) 20000 м    10/8 1000 м средняя 
[Sc|As trans]
+9 +6.8 86 +8  1010.9  -0.9  750  291           
12 20.11.17 130 (ЮВ) 4{11}  20000 м    9/9 1000 м 
[Sc]
+9.1 +6.7 85 +8  1009.7  -1.1  749  291           
15 20.11.17 130 (ЮВ) 5-10  20000 м    10/10 1000 м 
[Sc]
+8.3 +6.4 88 +7  1009.3  -0.5  749  292    +9.4       
18 20.11.17 130 (ЮВ) 4{10}  20000 м    10/10 600 м 
[Sc]
+8.9 +6.9 87 +8  1008.3  -0.9  748  291           
21 20.11.17 120 (ЮВ) 4000 м  дымка  10/10 600 м 
[Sc]
+8.4 +7.3 93 +7  1006  -2.4  746  290           
00 21.11.17 150 (ЮВ) 4{10}  4000 м  дымка  10/10 600 м 
[Sc]
+8.6 +7.3 92 +7  1005.4  -0.5  746  290           
03 21.11.17 140 (ЮВ) 4000 м  в посл. час дождь  10/8 300 м средняя 
[Frnb|As op]
+7.6 +6.6 93 +6  1004.8  -0.6  745  291  +7.6    0.5     
06 21.11.17 130 (ЮВ) 0500 м  туман{дождь}  ?/?  
+6.7 +6 95 +5  1004.3  -0.5  745  292  +6.7         
09 21.11.17 130 (ЮВ) 2000 м  дымка{туман}  10/0 средняя 
[As trans]
+7.8 +7.1 95 +7  1004.1  -0.2  745  291           
12 21.11.17 130 (ЮВ) 4000 м  дымка{туман}  10/0 средняя 
[As trans]
+7.4 +6.5 94 +6  1002.7  -1.4  744  291           
15 21.11.17 100 (В) 4000 м  дымка  10/6 600 м средняя 
[Sc|As op]
+6.8 +5.4 91 +6  1001.6  -1.1  743  291    +7.9  0.3     
18 21.11.17 120 (ЮВ) 4000 м  дымка  9/0 средняя 
[Ac As]
+4.5 +3.2 91 +4  1001  -0.7  742  294           
21 21.11.17 100 (В) 20000 м    10/0 средняя 
[As op]
+4.2 +2.6 89 +5  1000.3  -0.7  742  294           
00 22.11.17 120 (ЮВ) 20000 м  в посл. час дождь  10/6 300 м средняя 
[Frnb|As op]
+3.7 +2.9 94 +3  1000  -0.3  742  294           
03 22.11.17 180 (Ю) 20000 м  в посл. час дождь  10/10 300 м 
[Frnb|Ns]
+4.7 +3.9 95 +4  1000.5  0.5  742  293  +3.7       
Время (UTC), дата Ветер
(°,м/с) 
Видим.   Явления Облачность Т
(°С)
Тd
(°С)
f(%) Тe
(°С)
Pmin
(гПа)
dP
(гПа)
Po
(мм)
O2
(г/м3)
Тmin Tmax R s Состояние
почвы

Для получения пояснительной информации подведите курсор к названию столбца.

ПОГОДА Боковская - архив

Всё, что Вы хотите узнать о погоде Боковская - удобно и подробно!

Выберите нужную дату (начиная с 1 января 2015* года) и нажмите кнопку "Найти".
Будут отображены архивные сводки погоды по пункту Боковская, начиная с указанной даты.


Отображать данные в формате CSV (для использования в таблицах Excel)


Внимание! Наш архив погоды предназначен исключительно для личного некоммерческого использования в познавательных целях. Если Вам необходимы официальные справки о состоянии погоды (для производственных, юридических, коммерческих и т.п. целей), обращайтесь в органы Росгидромета.

*Примечание: данная дата относится к архиву по метеостанциям СССР (Россия, СНГ, Балтия).
Архив по метеостанциям Зарубежной Европы и Азии (кроме Китая) хранится 10 дней, по другим регионам земного шара (Китай, Африка, Америка, Австралия, Океания) - 1 день.

Боковская - район местоположения метеостанции


Название, широта, долгота, высота метеостанции:
Боковская 49.2°ш. 41.8°д. 91 м над ур. моря [Российская Федерация]

Дополнительная информация

В oтличие oт бoльшинства пoгoдных сайтoв мы публикуем пoдрoбную метеoинфoрмацию в детальнoм прoфессиoнальнoм фoрмате.

Характеристики температуры и влажнoсти вoздуха измеряются на высoте 2 м в тени вдали oт зданий и деревьев.
Скoрoсть ветра измеряется на высoте 10 м (на урoвне рoста челoвека скoрoсть ветра ниже в 1.5-2 раза). Если метеoстанция нахoдится в гoрoде или в лесу, тo скoрoсть ветра занижена на 2-4 м/с пo сравнению с oткрытым местoм. Скoрoсть ветра над акватoриями крупных рек и oзёр, а также на вершинах хoлмoв на 2-5 м/с выше, чем в oбычных услoвиях.
Атмoсфернoе давление в разных тoчках местнoсти мoжет значительнo oтличаться oт давления на метеoстанции, в зависимoсти oт услoвий рельефа (при пoдъёме на 10 м давление пoнижается примернo на 1 мм рт.ст.).